355 visiteurs
Prévisions de votre ville :
Vigilance : 79 départements 14 départements Mise à jour le 12/12/2019 à 16:10 - Voir la carte

Paris Roissy CDG (95380) le 13/12/2019 à 00:30 Choisir station

8°C 87 % SSO Vit. moyenne 24 kmh/h

Relevés météo quotidiens pour la station de :

UTC
S: Synop
M: Metar
Loc T°C
(°C)
Td
(°C)
HR
(%)
Vis
(km)
Néb
(octa)
Vent
(km/h)
Pression
(mb)
Précipitations
(mm)
Temps
              MOY
10 min
DIR RAF 1h MESURE VAR SUR 3h    
S 00 h 02h 0 9 - 6 9 -0.6/3h 0.0/3h -
S 01 h 03h 12.9 12.0 94 10 6/8 6 9 1014.0 -0.5/3h 0.2/1h
S 02 h 04h 12.8 11.7 93 14 - 4 6 1014.1 -0.3/3h 0.0/1h -
S 03 h 05h 12.6 11.7 94 14 - 6 11 1013.9 -0.1/3h 0.2/3h -
S 04 h 06h 13.4 12.5 94 13 8/8 6 7 1014.1 +0.1/3h 0.0/1h
S 05 h 07h 13.9 12.8 93 12 8/8 6 9 1014.5 +0.4/3h 0.0/1h
S 06 h 08h 15.0 13.7 92 13 8/8 2 4 1014.4 +0.5/3h 0.0/1h
S 07 h 09h 16.2 14.6 90 15 8/8 2 4 1014.9 +0.8/3h 0.0/1h
S 08 h 10h 17.9 15.3 85 14 8/8 4 9 1015.1 +0.6/3h 0.0/1h
S 09 h 11h 18.8 14.7 77 13 8/8 13 22 1015.3 +0.9/3h 0.0/3h
S 10 h 12h 21.1 15.6 71 16 7/8 13 22 1015.2 +0.3/3h 0.0/1h
S 11 h 13h 20.8 14.9 69 16 - 17 26 1015.1 0.0/3h 0.0/1h -
S 12 h 14h 20.5 15.9 75 16 6/8 9 15 1014.8 -0.5/3h 0.0/6h - 0.0/3h
S 13 h 15h 20.1 15.3 74 40 8/8 7 15 1014.5 -0.7/3h 0.0/1h
S 14 h 16h 19.5 15.8 79 40 8/8 17 24 1014.0 -1.1/3h 0.0/1h
S 15 h 17h 20.3 15.7 75 19 6/8 15 28 1013.4 -1.4/3h 0.0/3h
S 16 h 18h 19.4 15.5 78 45 - 13 24 1013.3 -1.2/3h 0.0/1h -
S 17 h 19h 18.6 15.3 81 35 7/8 11 22 1013.3 -0.7/3h 0.0/1h
S 18 h 20h 17.9 15.0 83 20 7/8 7 24 1013.7 +0.3/3h 0.0/12h - 0.0/3h
S 19 h 21h 17.1 14.9 87 3.1 8/8 6 13 1013.8 +0.5/3h 0.0/1h
S 20 h 22h 16.2 14.6 90 14 7/8 6 7 1014.2 +0.9/3h 0.0/1h
S 21 h 23h 15.7 14.6 93 10 8/8 2 4 1014.2 +0.5/3h 0.0/3h
S 22 h 00h 15.5 14.5 94 15 7/8 2 4 1013.9 +0.1/3h
S 23 h 01h 15.1 14.1 94 7 8/8 2 4 1013.5 -0.7/3h 0.0/1h
evolution des temperatures
cumul des precipitations
vent moyen et rafales
pression atmospherique

Un tiret (-) signifie que les données ne sont pas disponibles.

Passez la souris sur les pictos temps pour avoir plus de précisions. Passez les flèches sur l'icône de la direction du vent pour voir la direction précise en degrés.

Les données de l'heure en cours sont disponibles à partir de H+15 minutes.


S signifie station Synop, plus complète qu'une station Metar (M). Il y a +1h de différence entre l'heure UTC et l'heure légale en hiver et +2h en été.

Td est la mesure du point de rosée.

HR est l'humidité relative/p>

Vis est la visibilité

Néb est la nébulosité du ciel (couverture nuageuse) exprimée en octas (de 0/8 à 8/8).

Vent moy 10 min donne le vent moyen sur les 10 minutes qui précèdent le relevé.

Vent raf 1h donne la rafale maximale mesurée dans l'heure qui précède le relevé.


Les données les plus anciennes remontent à avril 2014.

Les données présentées sur cette page proviennent des stations météo officielles. Les relevés sont effectués aux normes en vigueur (anémomètre à 10m de haut, thermomètre sous abri normalisé à 2m du sol...)

Météo 60 décline toute responsabilité en cas d'absence de données, d'erreurs, de mauvaise utilisation ou interprétation et n'est pas habilité à fournir des certificats intempéries.